Time,TemperatureF,DewpointF,PressureIn,WindDirection,WindDirectionDegrees,WindSpeedMPH,WindSpeedGustMPH,Humidity,HourlyPrecipIn,Conditions,Clouds,dailyrainin,SolarRadiationWatts/m^2,SoftwareType,DateUTC
2013-04-11 00:00:00,35.7,19.9,29.91,SW,235,2.0,-999.0,56,-99.99,,,0.01,0.0,cwc,2013-04-11 06:00:00,
2013-04-11 00:05:00,35.5,20.0,29.91,SW,235,0.0,-999.0,57,-99.99,,,0.00,0.0,cwc,2013-04-11 06:05:00,
2013-04-11 00:10:00,35.2,19.7,29.91,SW,235,1.0,-999.0,57,-99.99,,,0.00,0.0,cwc,2013-04-11 06:10:00,
2013-04-11 00:15:00,34.8,19.7,29.91,SW,234,0.0,-999.0,58,-99.99,,,0.00,0.0,cwc,2013-04-11 06:15:00,
2013-04-11 00:25:00,34.4,19.6,29.90,SW,235,0.0,-999.0,59,-99.99,,,0.00,0.0,cwc,2013-04-11 06:25:00,
2013-04-11 00:30:00,34.1,19.3,29.90,SW,234,0.0,-999.0,59,-99.99,,,0.00,0.0,cwc,2013-04-11 06:30:00,
2013-04-11 00:35:00,33.8,19.4,29.90,SW,234,1.0,-999.0,60,-99.99,,,0.00,0.0,cwc,2013-04-11 06:35:00,
2013-04-11 00:40:00,33.3,18.9,29.90,SW,235,1.0,-999.0,60,-99.99,,,0.00,0.0,cwc,2013-04-11 06:40:00,
2013-04-11 00:45:00,32.8,18.8,29.90,SW,235,1.0,-999.0,61,-99.99,,,0.00,0.0,cwc,2013-04-11 06:45:00,
2013-04-11 00:50:00,32.6,18.9,29.89,SW,234,2.0,-999.0,62,-99.99,,,0.00,0.0,cwc,2013-04-11 06:50:00,
2013-04-11 00:55:00,32.5,18.8,29.89,SW,235,2.0,-999.0,62,-99.99,,,0.00,0.0,cwc,2013-04-11 06:55:00,
2013-04-11 01:00:00,32.4,18.7,29.89,SW,235,0.0,-999.0,62,-99.99,,,0.00,0.0,cwc,2013-04-11 07:00:00,
2013-04-11 01:05:00,32.1,18.8,29.88,SW,234,1.0,-999.0,63,-99.99,,,0.00,0.0,cwc,2013-04-11 07:05:00,
2013-04-11 01:10:00,31.8,18.5,29.89,SW,234,0.0,-999.0,63,-99.99,,,0.00,0.0,cwc,2013-04-11 07:10:00,
2013-04-11 01:15:00,31.6,18.6,29.89,SW,235,0.0,-999.0,64,-99.99,,,0.00,0.0,cwc,2013-04-11 07:15:00,
2013-04-11 01:25:00,30.7,18.5,29.89,SW,235,0.0,-999.0,66,-99.99,,,0.00,0.0,cwc,2013-04-11 07:25:00,
2013-04-11 01:30:00,30.3,18.4,29.90,SW,234,0.0,-999.0,67,-99.99,,,0.00,0.0,cwc,2013-04-11 07:30:00,
2013-04-11 01:35:00,30.0,18.1,29.89,SW,235,0.0,-999.0,67,-99.99,,,0.00,0.0,cwc,2013-04-11 07:35:00,
2013-04-11 01:40:00,29.7,18.2,29.90,SW,235,0.0,-999.0,68,-99.99,,,0.00,0.0,cwc,2013-04-11 07:40:00,
2013-04-11 01:45:00,29.2,17.7,29.90,SW,234,1.0,-999.0,68,-99.99,,,0.00,0.0,cwc,2013-04-11 07:45:00,
2013-04-11 01:50:00,29.0,18.2,29.90,SW,234,1.0,-999.0,70,-99.99,,,0.00,0.0,cwc,2013-04-11 07:50:00,
2013-04-11 01:55:00,28.8,18.0,29.89,SW,235,0.0,-999.0,70,-99.99,,,0.00,0.0,cwc,2013-04-11 07:55:00,
2013-04-11 02:00:00,28.6,17.8,29.90,SW,235,3.0,-999.0,70,-99.99,,,0.00,0.0,cwc,2013-04-11 08:00:00,
2013-04-11 02:05:00,28.5,17.7,29.89,SW,234,1.0,-999.0,70,-99.99,,,0.00,0.0,cwc,2013-04-11 08:05:00,
2013-04-11 02:10:00,28.3,17.5,29.90,SW,235,1.0,-999.0,70,-99.99,,,0.00,0.0,cwc,2013-04-11 08:10:00,
2013-04-11 02:15:00,28.3,17.9,29.90,SW,235,2.0,-999.0,71,-99.99,,,0.00,0.0,cwc,2013-04-11 08:15:00,
2013-04-11 02:20:00,28.6,18.2,29.89,SW,234,0.0,-999.0,71,-99.99,,,0.00,0.0,cwc,2013-04-11 08:20:00,
2013-04-11 02:25:00,28.8,18.0,29.90,SW,234,0.0,-999.0,70,-99.99,,,0.00,0.0,cwc,2013-04-11 08:25:00,
2013-04-11 02:30:00,28.9,18.1,29.90,SW,235,0.0,-999.0,70,-99.99,,,0.00,0.0,cwc,2013-04-11 08:30:00,
2013-04-11 02:35:00,28.8,17.6,29.90,SW,235,0.0,-999.0,69,-99.99,,,0.00,0.0,cwc,2013-04-11 08:35:00,
2013-04-11 02:40:00,28.7,17.9,29.89,SW,235,2.0,-999.0,70,-99.99,,,0.00,0.0,cwc,2013-04-11 08:40:00,
2013-04-11 02:45:00,28.5,17.7,29.89,SW,236,1.0,-999.0,70,-99.99,,,0.00,0.0,cwc,2013-04-11 08:45:00,
2013-04-11 02:50:00,28.5,17.7,29.90,SW,236,0.0,-999.0,70,-99.99,,,0.00,0.0,cwc,2013-04-11 08:50:00,
2013-04-11 03:00:00,28.1,17.7,29.90,SW,235,0.0,-999.0,71,-99.99,,,0.00,0.0,cwc,2013-04-11 09:00:00,
2013-04-11 03:05:00,28.0,17.6,29.90,SW,236,0.0,-999.0,71,-99.99,,,0.00,0.0,cwc,2013-04-11 09:05:00,
2013-04-11 03:10:00,27.7,17.3,29.90,SW,236,1.0,-999.0,71,-99.99,,,0.00,0.0,cwc,2013-04-11 09:10:00,
2013-04-11 03:15:00,27.4,17.3,29.90,SW,236,2.0,-999.0,72,-99.99,,,0.00,0.0,cwc,2013-04-11 09:15:00,
2013-04-11 03:20:00,27.2,17.1,29.89,SW,236,1.0,-999.0,72,-99.99,,,0.00,0.0,cwc,2013-04-11 09:20:00,
2013-04-11 03:25:00,27.0,17.3,29.89,SW,236,1.0,-999.0,73,-99.99,,,0.00,0.0,cwc,2013-04-11 09:25:00,
2013-04-11 03:30:00,26.8,17.4,29.89,SW,235,4.0,-999.0,74,-99.99,,,0.00,0.0,cwc,2013-04-11 09:30:00,
2013-04-11 03:35:00,26.8,17.8,29.89,SW,235,4.0,-999.0,75,-99.99,,,0.00,0.0,cwc,2013-04-11 09:35:00,
2013-04-11 03:40:00,27.1,17.7,29.89,SW,234,2.0,-999.0,74,-99.99,,,0.00,0.0,cwc,2013-04-11 09:40:00,
2013-04-11 03:45:00,27.0,17.3,29.89,SW,235,0.0,-999.0,73,-99.99,,,0.00,0.0,cwc,2013-04-11 09:45:00,
2013-04-11 03:50:00,26.9,17.5,29.90,SW,235,0.0,-999.0,74,-99.99,,,0.00,0.0,cwc,2013-04-11 09:50:00,
2013-04-11 03:55:00,26.8,17.8,29.90,SW,234,0.0,-999.0,75,-99.99,,,0.00,0.0,cwc,2013-04-11 09:55:00,
2013-04-11 04:00:00,26.7,17.3,29.90,SW,236,0.0,-999.0,74,-99.99,,,0.00,0.0,cwc,2013-04-11 10:00:00,
2013-04-11 04:10:00,26.7,17.7,29.90,SW,235,0.0,-999.0,75,-99.99,,,0.00,0.0,cwc,2013-04-11 10:10:00,
2013-04-11 04:15:00,26.7,17.3,29.90,SW,234,0.0,-999.0,74,-99.99,,,0.00,0.0,cwc,2013-04-11 10:15:00,
2013-04-11 04:20:00,26.5,17.1,29.90,SW,235,0.0,-999.0,74,-99.99,,,0.00,0.0,cwc,2013-04-11 10:20:00,
2013-04-11 04:25:00,26.2,17.2,29.90,SW,236,1.0,-999.0,75,-99.99,,,0.00,0.0,cwc,2013-04-11 10:25:00,
2013-04-11 04:30:00,26.3,17.7,29.90,SW,236,3.0,-999.0,76,-99.99,,,0.00,0.0,cwc,2013-04-11 10:30:00,
2013-04-11 04:35:00,26.0,16.6,29.90,SW,236,0.0,-999.0,74,-99.99,,,0.00,0.0,cwc,2013-04-11 10:35:00,
2013-04-11 04:40:00,25.6,16.2,29.90,SW,236,0.0,-999.0,74,-99.99,,,0.00,0.0,cwc,2013-04-11 10:40:00,
2013-04-11 04:45:00,25.3,16.3,29.90,SW,236,3.0,-999.0,75,-99.99,,,0.00,0.0,cwc,2013-04-11 10:45:00,
2013-04-11 04:50:00,24.9,16.6,29.91,SW,236,3.0,-999.0,77,-99.99,,,0.00,0.0,cwc,2013-04-11 10:50:00,
2013-04-11 04:55:00,25.1,17.2,29.91,SW,236,3.0,-999.0,78,-99.99,,,0.00,0.0,cwc,2013-04-11 10:55:00,
2013-04-11 05:00:00,25.2,17.3,29.91,SW,236,2.0,-999.0,78,-99.99,,,0.00,0.0,cwc,2013-04-11 11:00:00,
2013-04-11 05:05:00,25.2,17.3,29.91,SW,236,2.0,-999.0,78,-99.99,,,0.00,0.0,cwc,2013-04-11 11:05:00,
2013-04-11 05:10:00,25.2,17.3,29.92,SW,236,1.0,-999.0,78,-99.99,,,0.00,0.0,cwc,2013-04-11 11:10:00,
2013-04-11 05:15:00,25.2,16.9,29.92,SW,236,1.0,-999.0,77,-99.99,,,0.00,0.0,cwc,2013-04-11 11:15:00,
2013-04-11 05:20:00,24.9,16.6,29.92,SW,235,0.0,-999.0,77,-99.99,,,0.00,0.0,cwc,2013-04-11 11:20:00,
2013-04-11 05:25:00,24.7,16.8,29.92,SW,235,0.0,-999.0,78,-99.99,,,0.00,0.0,cwc,2013-04-11 11:25:00,
2013-04-11 05:30:00,24.7,17.1,29.92,SW,236,0.0,-999.0,79,-99.99,,,0.00,0.0,cwc,2013-04-11 11:30:00,
2013-04-11 05:35:00,24.6,17.0,29.92,SW,236,1.0,-999.0,79,-99.99,,,0.00,0.0,cwc,2013-04-11 11:35:00,
2013-04-11 05:40:00,24.5,16.6,29.92,SW,236,0.0,-999.0,78,-99.99,,,0.00,0.0,cwc,2013-04-11 11:40:00,
2013-04-11 05:45:00,24.4,16.8,29.92,SW,236,0.0,-999.0,79,-99.99,,,0.00,0.0,cwc,2013-04-11 11:45:00,
2013-04-11 05:50:00,24.4,16.5,29.92,SW,236,1.0,-999.0,78,-99.99,,,0.00,0.0,cwc,2013-04-11 11:50:00,
2013-04-11 05:55:00,24.1,16.2,29.92,SW,236,0.0,-999.0,78,-99.99,,,0.00,0.0,cwc,2013-04-11 11:55:00,
2013-04-11 06:00:00,24.1,16.9,29.92,SW,236,0.0,-999.0,80,-99.99,,,0.00,0.0,cwc,2013-04-11 12:00:00,
2013-04-11 06:05:00,24.2,16.6,29.93,SW,236,0.0,-999.0,79,-99.99,,,0.00,0.0,cwc,2013-04-11 12:05:00,
2013-04-11 06:10:00,24.2,16.6,29.93,SW,236,0.0,-999.0,79,-99.99,,,0.00,0.0,cwc,2013-04-11 12:10:00,
2013-04-11 06:15:00,24.2,16.6,29.93,SW,235,2.0,-999.0,79,-99.99,,,0.00,0.0,cwc,2013-04-11 12:15:00,
2013-04-11 06:20:00,23.9,16.0,29.93,SW,236,3.0,-999.0,78,-99.99,,,0.00,0.0,cwc,2013-04-11 12:20:00,
2013-04-11 06:25:00,23.7,16.1,29.93,SW,235,3.0,-999.0,79,-99.99,,,0.00,0.0,cwc,2013-04-11 12:25:00,
2013-04-11 06:30:00,23.5,16.3,29.94,SW,235,4.0,-999.0,80,-99.99,,,0.00,0.0,cwc,2013-04-11 12:30:00,
2013-04-11 06:35:00,23.3,16.1,29.93,SW,235,3.0,-999.0,80,-99.99,,,0.00,0.0,cwc,2013-04-11 12:35:00,
2013-04-11 06:40:00,23.3,16.5,29.94,SW,236,2.0,-999.0,81,-99.99,,,0.00,5.0,cwc,2013-04-11 12:40:00,
2013-04-11 06:45:00,23.4,16.6,29.94,SW,234,1.0,-999.0,81,-99.99,,,0.00,9.0,cwc,2013-04-11 12:45:00,
2013-04-11 06:50:00,23.2,16.0,29.94,SW,236,2.0,-999.0,80,-99.99,,,0.00,11.0,cwc,2013-04-11 12:50:00,
2013-04-11 06:55:00,23.1,16.3,29.93,SW,236,0.0,-999.0,81,-99.99,,,0.00,18.0,cwc,2013-04-11 12:55:00,
2013-04-11 07:00:00,23.1,16.3,29.94,SW,236,0.0,-999.0,81,-99.99,,,0.00,37.0,cwc,2013-04-11 13:00:00,
2013-04-11 07:05:00,23.0,16.2,29.94,SW,236,1.0,-999.0,81,-99.99,,,0.00,33.0,cwc,2013-04-11 13:05:00,
2013-04-11 07:10:00,23.0,16.5,29.94,SW,236,1.0,-999.0,82,-99.99,,,0.00,65.0,cwc,2013-04-11 13:10:00,
2013-04-11 07:15:00,23.4,17.3,29.94,SW,236,0.0,-999.0,83,-99.99,,,0.00,67.0,cwc,2013-04-11 13:15:00,
2013-04-11 07:20:00,23.7,17.2,29.94,SW,236,2.0,-999.0,82,-99.99,,,0.00,79.0,cwc,2013-04-11 13:20:00,
2013-04-11 07:25:00,24.1,17.6,29.94,SW,236,1.0,-999.0,82,-99.99,,,0.00,98.0,cwc,2013-04-11 13:25:00,
2013-04-11 07:30:00,24.4,17.9,29.94,SW,236,0.0,-999.0,82,-99.99,,,0.00,105.0,cwc,2013-04-11 13:30:00,
2013-04-11 07:35:00,24.9,18.1,29.94,SW,236,1.0,-999.0,81,-99.99,,,0.00,158.0,cwc,2013-04-11 13:35:00,
2013-04-11 07:40:00,25.7,17.8,29.94,SW,236,0.0,-999.0,78,-99.99,,,0.00,193.0,cwc,2013-04-11 13:40:00,
2013-04-11 07:45:00,26.6,17.6,29.94,SW,236,0.0,-999.0,75,-99.99,,,0.00,207.0,cwc,2013-04-11 13:45:00,
2013-04-11 07:50:00,27.5,17.8,29.95,SW,236,3.0,-999.0,73,-99.99,,,0.00,216.0,cwc,2013-04-11 13:50:00,
2013-04-11 07:55:00,28.4,17.6,29.96,WSW,242,3.0,-999.0,70,-99.99,,,0.00,239.0,cwc,2013-04-11 13:55:00,
2013-04-11 08:00:00,29.1,17.6,29.96,North,360,2.0,-999.0,68,-99.99,,,0.00,260.0,cwc,2013-04-11 14:00:00,
2013-04-11 08:05:00,29.9,17.7,29.96,North,5,2.0,-999.0,66,-99.99,,,0.00,279.0,cwc,2013-04-11 14:05:00,
2013-04-11 08:10:00,30.7,18.1,29.97,North,5,2.0,-999.0,65,-99.99,,,0.00,299.0,cwc,2013-04-11 14:10:00,
2013-04-11 08:15:00,31.5,18.5,29.97,North,5,0.0,-999.0,64,-99.99,,,0.00,318.0,cwc,2013-04-11 14:15:00,
2013-04-11 08:20:00,32.3,18.6,29.97,North,360,1.0,-999.0,62,-99.99,,,0.00,336.0,cwc,2013-04-11 14:20:00,
2013-04-11 08:25:00,32.8,18.8,29.97,North,5,2.0,-999.0,61,-99.99,,,0.00,352.0,cwc,2013-04-11 14:25:00,
2013-04-11 08:30:00,33.3,18.9,29.98,North,5,1.0,-999.0,60,-99.99,,,0.00,371.0,cwc,2013-04-11 14:30:00,
2013-04-11 08:35:00,33.8,19.4,29.97,North,360,1.0,-999.0,60,-99.99,,,0.00,392.0,cwc,2013-04-11 14:35:00,
2013-04-11 08:40:00,34.4,19.3,29.98,North,360,0.0,-999.0,58,-99.99,,,0.00,374.0,cwc,2013-04-11 14:40:00,
2013-04-11 08:45:00,34.9,19.4,29.98,North,5,0.0,-999.0,57,-99.99,,,0.00,229.0,cwc,2013-04-11 14:45:00,
2013-04-11 08:50:00,35.4,19.9,29.98,North,5,0.0,-999.0,57,-99.99,,,0.00,455.0,cwc,2013-04-11 14:50:00,
2013-04-11 08:55:00,36.2,20.4,29.98,North,360,1.0,-999.0,56,-99.99,,,0.00,466.0,cwc,2013-04-11 14:55:00,
2013-04-11 09:00:00,37.1,20.5,29.98,North,5,3.0,-999.0,54,-99.99,,,0.00,482.0,cwc,2013-04-11 15:00:00,
2013-04-11 09:05:00,37.9,20.6,29.98,North,5,0.0,-999.0,52,-99.99,,,0.00,497.0,cwc,2013-04-11 15:05:00,
2013-04-11 09:10:00,38.8,21.2,29.97,North,360,2.0,-999.0,51,-99.99,,,0.00,517.0,cwc,2013-04-11 15:10:00,
2013-04-11 09:15:00,39.5,20.8,29.97,North,360,3.0,-999.0,48,-99.99,,,0.00,534.0,cwc,2013-04-11 15:15:00,
2013-04-11 09:20:00,40.1,21.0,29.97,North,5,0.0,-999.0,47,-99.99,,,0.00,550.0,cwc,2013-04-11 15:20:00,
2013-04-11 09:25:00,40.6,21.2,29.97,North,5,0.0,-999.0,46,-99.99,,,0.00,566.0,cwc,2013-04-11 15:25:00,
2013-04-11 09:30:00,41.1,20.9,29.96,North,5,0.0,-999.0,44,-99.99,,,0.00,585.0,cwc,2013-04-11 15:30:00,
2013-04-11 09:35:00,41.9,21.4,29.96,North,360,2.0,-999.0,43,-99.99,,,0.00,599.0,cwc,2013-04-11 15:35:00,
2013-04-11 09:40:00,42.8,21.6,29.96,North,5,3.0,-999.0,41,-99.99,,,0.00,617.0,cwc,2013-04-11 15:40:00,
2013-04-11 09:45:00,43.4,21.8,29.96,North,5,0.0,-999.0,40,-99.99,,,0.00,633.0,cwc,2013-04-11 15:45:00,
2013-04-11 09:50:00,43.7,21.0,29.95,North,5,2.0,-999.0,37,-99.99,,,0.00,649.0,cwc,2013-04-11 15:50:00,
2013-04-11 09:55:00,43.6,20.9,29.95,North,360,3.0,-999.0,37,-99.99,,,0.00,661.0,cwc,2013-04-11 15:55:00,
2013-04-11 10:00:00,44.2,21.5,29.96,North,5,2.0,-999.0,37,-99.99,,,0.00,679.0,cwc,2013-04-11 16:00:00,
2013-04-11 10:05:00,44.8,21.4,29.95,North,5,0.0,-999.0,35,-99.99,,,0.00,694.0,cwc,2013-04-11 16:05:00,
2013-04-11 10:10:00,45.2,21.1,29.96,North,360,3.0,-999.0,33,-99.99,,,0.00,708.0,cwc,2013-04-11 16:10:00,
2013-04-11 10:15:00,44.9,21.5,29.95,North,5,0.0,-999.0,35,-99.99,,,0.00,719.0,cwc,2013-04-11 16:15:00,
2013-04-11 10:20:00,44.4,20.6,29.95,North,5,2.0,-999.0,34,-99.99,,,0.00,735.0,cwc,2013-04-11 16:20:00,
2013-04-11 10:25:00,44.3,20.9,29.95,North,5,1.0,-999.0,35,-99.99,,,0.00,747.0,cwc,2013-04-11 16:25:00,
2013-04-11 10:30:00,44.8,21.4,29.95,North,360,0.0,-999.0,35,-99.99,,,0.00,756.0,cwc,2013-04-11 16:30:00,
2013-04-11 10:35:00,45.6,21.5,29.94,North,5,0.0,-999.0,33,-99.99,,,0.00,775.0,cwc,2013-04-11 16:35:00,
2013-04-11 10:40:00,46.6,21.8,29.94,North,5,3.0,-999.0,31,-99.99,,,0.00,786.0,cwc,2013-04-11 16:40:00,
2013-04-11 10:45:00,46.8,22.0,29.94,NNE,21,5.0,-999.0,31,-99.99,,,0.00,796.0,cwc,2013-04-11 16:45:00,
2013-04-11 10:50:00,46.7,22.2,29.94,NNE,22,4.0,-999.0,32,-99.99,,,0.00,807.0,cwc,2013-04-11 16:50:00,
2013-04-11 10:55:00,46.7,21.9,29.93,NNE,22,2.0,-999.0,31,-99.99,,,0.00,819.0,cwc,2013-04-11 16:55:00,
2013-04-11 11:00:00,46.9,22.4,29.93,NNE,23,3.0,-999.0,32,-99.99,,,0.00,830.0,cwc,2013-04-11 17:00:00,
2013-04-11 11:05:00,46.9,22.4,29.93,NE,34,1.0,-999.0,32,-99.99,,,0.00,842.0,cwc,2013-04-11 17:05:00,
2013-04-11 11:10:00,47.5,22.7,29.93,NE,35,2.0,-999.0,31,-99.99,,,0.00,851.0,cwc,2013-04-11 17:10:00,
2013-04-11 11:15:00,48.0,23.2,29.92,NE,37,3.0,-999.0,31,-99.99,,,0.00,846.0,cwc,2013-04-11 17:15:00,
2013-04-11 11:20:00,48.1,23.3,29.92,NE,37,0.0,-999.0,31,-99.99,,,0.00,874.0,cwc,2013-04-11 17:20:00,
2013-04-11 11:25:00,48.7,23.5,29.91,NE,40,2.0,-999.0,30,-99.99,,,0.00,882.0,cwc,2013-04-11 17:25:00,
2013-04-11 11:30:00,49.0,24.2,29.91,NE,43,0.0,-999.0,31,-99.99,,,0.00,888.0,cwc,2013-04-11 17:30:00,
2013-04-11 11:35:00,49.7,24.9,29.91,NE,43,0.0,-999.0,31,-99.99,,,0.00,900.0,cwc,2013-04-11 17:35:00,
2013-04-11 11:40:00,50.3,25.5,29.91,NE,40,4.0,-999.0,31,-99.99,,,0.00,905.0,cwc,2013-04-11 17:40:00,
2013-04-11 11:45:00,50.5,25.3,29.90,NE,40,1.0,-999.0,30,-99.99,,,0.00,911.0,cwc,2013-04-11 17:45:00,
2013-04-11 11:50:00,50.5,25.7,29.90,NE,53,3.0,-999.0,31,-99.99,,,0.00,916.0,cwc,2013-04-11 17:50:00,
2013-04-11 11:55:00,50.4,25.9,29.90,SW,221,1.0,-999.0,32,-99.99,,,0.00,919.0,cwc,2013-04-11 17:55:00,
2013-04-11 12:00:00,50.6,26.1,29.89,South,179,5.0,-999.0,32,-99.99,,,0.00,926.0,cwc,2013-04-11 18:00:00,
2013-04-11 12:05:00,51.0,26.5,29.89,NNW,336,1.0,-999.0,32,-99.99,,,0.00,933.0,cwc,2013-04-11 18:05:00,
2013-04-11 12:30:00,52.4,27.2,29.87,SW,216,11.0,-999.0,30,-99.99,,,0.00,951.0,cwc,2013-04-11 18:30:00,
2013-04-11 12:35:00,52.4,27.6,29.87,SSW,206,4.0,-999.0,31,-99.99,,,0.00,954.0,cwc,2013-04-11 18:35:00,
2013-04-11 12:40:00,52.6,27.4,29.87,SSW,211,9.0,-999.0,30,-99.99,,,0.00,928.0,cwc,2013-04-11 18:40:00,
2013-04-11 12:45:00,52.8,28.0,29.86,SW,223,2.0,-999.0,31,-99.99,,,0.00,958.0,cwc,2013-04-11 18:45:00,
2013-04-11 12:50:00,53.7,28.5,29.85,SSW,208,6.0,-999.0,30,-99.99,,,0.00,965.0,cwc,2013-04-11 18:50:00,
2013-04-11 12:55:00,54.1,28.9,29.85,SSW,213,7.0,-999.0,30,-99.99,,,0.00,969.0,cwc,2013-04-11 18:55:00,
2013-04-11 13:00:00,54.5,28.9,29.85,SW,225,12.0,-999.0,29,-99.99,,,0.00,970.0,cwc,2013-04-11 19:00:00,
2013-04-11 13:05:00,54.5,28.9,29.84,SSW,192,2.0,-999.0,29,-99.99,,,0.00,967.0,cwc,2013-04-11 19:05:00,
2013-04-11 13:10:00,55.1,29.5,29.84,SSW,211,2.0,-999.0,29,-99.99,,,0.00,984.0,cwc,2013-04-11 19:10:00,
2013-04-11 13:15:00,55.7,30.1,29.84,South,171,1.0,-999.0,29,-99.99,,,0.00,969.0,cwc,2013-04-11 19:15:00,
2013-04-11 13:20:00,56.6,31.0,29.83,SW,217,2.0,-999.0,29,-99.99,,,0.00,960.0,cwc,2013-04-11 19:20:00,
2013-04-11 13:25:00,57.1,31.2,29.83,SW,231,2.0,-999.0,28,-99.99,,,0.00,958.0,cwc,2013-04-11 19:25:00,
2013-04-11 13:30:00,57.0,31.1,29.83,SW,232,8.0,-999.0,28,-99.99,,,0.00,958.0,cwc,2013-04-11 19:30:00,
2013-04-11 13:35:00,56.8,30.9,29.83,West,267,3.0,-999.0,28,-99.99,,,0.00,954.0,cwc,2013-04-11 19:35:00,
2013-04-11 13:40:00,56.9,31.3,29.82,SW,235,5.0,-999.0,29,-99.99,,,0.00,951.0,cwc,2013-04-11 19:40:00,
2013-04-11 13:45:00,57.2,31.3,29.82,WNW,286,6.0,-999.0,28,-99.99,,,0.00,949.0,cwc,2013-04-11 19:45:00,
2013-04-11 13:50:00,57.7,32.1,29.82,SW,223,6.0,-999.0,29,-99.99,,,0.00,944.0,cwc,2013-04-11 19:50:00,
2013-04-11 13:55:00,58.2,32.6,29.82,SW,236,4.0,-999.0,29,-99.99,,,0.00,940.0,cwc,2013-04-11 19:55:00,
2013-04-11 14:00:00,58.5,32.9,29.82,SW,227,5.0,-999.0,29,-99.99,,,0.00,940.0,cwc,2013-04-11 20:00:00,
2013-04-11 14:05:00,57.9,32.0,29.82,West,275,8.0,-999.0,28,-99.99,,,0.00,935.0,cwc,2013-04-11 20:05:00,
2013-04-11 14:10:00,57.4,31.8,29.81,SW,221,7.0,-999.0,29,-99.99,,,0.00,925.0,cwc,2013-04-11 20:10:00,
2013-04-11 14:15:00,57.9,32.7,29.80,East,94,2.0,-999.0,30,-99.99,,,0.00,918.0,cwc,2013-04-11 20:15:00,
2013-04-11 14:20:00,58.3,32.7,29.81,SW,236,2.0,-999.0,29,-99.99,,,0.00,918.0,cwc,2013-04-11 20:20:00,
2013-04-11 14:25:00,59.0,33.8,29.81,WSW,250,0.0,-999.0,30,-99.99,,,0.00,930.0,cwc,2013-04-11 20:25:00,
2013-04-11 14:30:00,59.7,33.8,29.81,SW,219,7.0,-999.0,28,-99.99,,,0.00,905.0,cwc,2013-04-11 20:30:00,
2013-04-11 14:35:00,59.0,33.4,29.80,SSW,207,4.0,-999.0,29,-99.99,,,0.00,895.0,cwc,2013-04-11 20:35:00,
2013-04-11 14:40:00,59.0,33.4,29.80,SSW,206,4.0,-999.0,29,-99.99,,,0.00,891.0,cwc,2013-04-11 20:40:00,
2013-04-11 14:45:00,59.3,33.7,29.80,SW,226,5.0,-999.0,29,-99.99,,,0.00,888.0,cwc,2013-04-11 20:45:00,
2013-04-11 14:50:00,59.0,33.4,29.80,SW,227,13.0,-999.0,29,-99.99,,,0.00,879.0,cwc,2013-04-11 20:50:00,
2013-04-11 14:55:00,59.0,33.4,29.79,SW,221,11.0,-999.0,29,-99.99,,,0.00,888.0,cwc,2013-04-11 20:55:00,
2013-04-11 15:00:00,58.9,33.3,29.79,SW,218,9.0,-999.0,29,-99.99,,,0.00,891.0,cwc,2013-04-11 21:00:00,
2013-04-11 15:05:00,59.0,33.4,29.79,South,170,3.0,-999.0,29,-99.99,,,0.00,872.0,cwc,2013-04-11 21:05:00,
2013-04-11 15:10:00,59.4,34.2,29.78,SW,230,9.0,-999.0,30,-99.99,,,0.00,719.0,cwc,2013-04-11 21:10:00,
2013-04-11 15:15:00,59.9,34.3,29.79,SW,230,11.0,-999.0,29,-99.99,,,0.00,865.0,cwc,2013-04-11 21:15:00,
2013-04-11 15:20:00,59.3,33.7,29.79,SW,236,19.0,-999.0,29,-99.99,,,0.00,837.0,cwc,2013-04-11 21:20:00,
2013-04-11 15:25:00,59.0,33.4,29.78,SW,214,4.0,-999.0,29,-99.99,,,0.00,812.0,cwc,2013-04-11 21:25:00,
2013-04-11 15:30:00,59.0,33.8,29.78,WSW,251,6.0,-999.0,30,-99.99,,,0.00,800.0,cwc,2013-04-11 21:30:00,
2013-04-11 15:35:00,59.0,33.4,29.78,WSW,246,5.0,-999.0,29,-99.99,,,0.00,807.0,cwc,2013-04-11 21:35:00,
2013-04-11 15:40:00,59.2,34.0,29.77,West,279,4.0,-999.0,30,-99.99,,,0.00,780.0,cwc,2013-04-11 21:40:00,
2013-04-11 15:45:00,59.9,34.7,29.77,SSW,207,0.0,-999.0,30,-99.99,,,0.00,777.0,cwc,2013-04-11 21:45:00,
2013-04-11 15:50:00,60.4,34.8,29.77,West,267,3.0,-999.0,29,-99.99,,,0.00,763.0,cwc,2013-04-11 21:50:00,
2013-04-11 15:55:00,60.3,34.7,29.77,WSW,242,6.0,-999.0,29,-99.99,,,0.00,749.0,cwc,2013-04-11 21:55:00,
2013-04-11 16:00:00,59.9,34.3,29.77,SW,219,8.0,-999.0,29,-99.99,,,0.00,789.0,cwc,2013-04-11 22:00:00,
2013-04-11 16:05:00,59.6,34.4,29.77,South,173,2.0,-999.0,30,-99.99,,,0.00,749.0,cwc,2013-04-11 22:05:00,
2013-04-11 16:10:00,60.0,34.4,29.77,SSW,194,7.0,-999.0,29,-99.99,,,0.00,719.0,cwc,2013-04-11 22:10:00,
2013-04-11 16:15:00,60.1,34.9,29.76,ENE,71,3.0,-999.0,30,-99.99,,,0.00,689.0,cwc,2013-04-11 22:15:00,
2013-04-11 16:20:00,60.3,34.7,29.76,SW,236,4.0,-999.0,29,-99.99,,,0.00,83.0,cwc,2013-04-11 22:20:00,
2013-04-11 16:25:00,60.3,35.1,29.76,West,259,4.0,-999.0,30,-99.99,,,0.00,649.0,cwc,2013-04-11 22:25:00,
2013-04-11 16:30:00,60.6,35.0,29.76,SW,229,14.0,-999.0,29,-99.99,,,0.00,650.0,cwc,2013-04-11 22:30:00,
2013-04-11 16:35:00,60.7,35.1,29.76,SW,229,7.0,-999.0,29,-99.99,,,0.00,621.0,cwc,2013-04-11 22:35:00,
2013-04-11 16:40:00,60.2,34.6,29.76,SW,232,7.0,-999.0,29,-99.99,,,0.00,540.0,cwc,2013-04-11 22:40:00,
2013-04-11 16:45:00,60.3,34.7,29.76,SW,217,3.0,-999.0,29,-99.99,,,0.00,81.0,cwc,2013-04-11 22:45:00,
2013-04-11 16:50:00,60.3,35.1,29.76,SW,236,7.0,-999.0,30,-99.99,,,0.00,566.0,cwc,2013-04-11 22:50:00,
2013-04-11 16:55:00,59.8,34.6,29.76,ESE,103,1.0,-999.0,30,-99.99,,,0.00,540.0,cwc,2013-04-11 22:55:00,
2013-04-11 17:00:00,59.7,34.5,29.76,SSW,194,13.0,-999.0,30,-99.99,,,0.00,540.0,cwc,2013-04-11 23:00:00,
2013-04-11 17:05:00,59.7,34.5,29.76,NE,44,6.0,-999.0,30,-99.99,,,0.00,496.0,cwc,2013-04-11 23:05:00,
2013-04-11 17:10:00,59.7,34.5,29.76,WSW,238,0.0,-999.0,30,-99.99,,,0.00,504.0,cwc,2013-04-11 23:10:00,
2013-04-11 17:15:00,60.0,35.2,29.75,WNW,285,1.0,-999.0,31,-99.99,,,0.00,469.0,cwc,2013-04-11 23:15:00,
2013-04-11 17:20:00,60.4,35.2,29.76,SW,229,8.0,-999.0,30,-99.99,,,0.00,225.0,cwc,2013-04-11 23:20:00,
2013-04-11 17:25:00,59.0,33.8,29.75,SW,221,5.0,-999.0,30,-99.99,,,0.00,156.0,cwc,2013-04-11 23:25:00,
2013-04-11 17:30:00,58.6,34.1,29.75,SW,221,0.0,-999.0,32,-99.99,,,0.00,424.0,cwc,2013-04-11 23:30:00,
2013-04-11 17:40:00,57.9,33.4,29.75,West,280,2.0,-999.0,32,-99.99,,,0.00,74.0,cwc,2013-04-11 23:40:00,
2013-04-11 17:45:00,57.3,32.8,29.76,SW,227,3.0,-999.0,32,-99.99,,,0.00,67.0,cwc,2013-04-11 23:45:00,
2013-04-11 17:50:00,56.9,32.8,29.76,SW,227,4.0,-999.0,33,-99.99,,,0.00,53.0,cwc,2013-04-11 23:50:00,
2013-04-11 17:55:00,56.6,32.5,29.75,WSW,240,1.0,-999.0,33,-99.99,,,0.00,58.0,cwc,2013-04-11 23:55:00,
2013-04-11 18:00:00,56.3,32.5,29.76,WSW,240,1.0,-999.0,34,-99.99,,,0.00,63.0,cwc,2013-04-12 00:00:00,
2013-04-11 18:05:00,56.2,32.4,29.76,WSW,240,0.0,-999.0,34,-99.99,,,0.00,88.0,cwc,2013-04-12 00:05:00,
2013-04-11 18:10:00,56.2,32.8,29.76,WSW,240,0.0,-999.0,35,-99.99,,,0.00,88.0,cwc,2013-04-12 00:10:00,
2013-04-11 18:15:00,56.1,32.7,29.76,WSW,240,0.0,-999.0,35,-99.99,,,0.00,81.0,cwc,2013-04-12 00:15:00,
2013-04-11 18:20:00,56.1,32.7,29.76,WSW,240,0.0,-999.0,35,-99.99,,,0.00,58.0,cwc,2013-04-12 00:20:00,
2013-04-11 18:25:00,56.1,32.7,29.76,WSW,240,0.0,-999.0,35,-99.99,,,0.00,46.0,cwc,2013-04-12 00:25:00,
2013-04-11 18:30:00,56.1,32.7,29.76,WSW,240,4.0,-999.0,35,-99.99,,,0.00,40.0,cwc,2013-04-12 00:30:00,
2013-04-11 18:35:00,56.0,32.6,29.76,WSW,242,2.0,-999.0,35,-99.99,,,0.00,42.0,cwc,2013-04-12 00:35:00,
2013-04-11 18:40:00,55.9,32.9,29.76,SW,232,7.0,-999.0,36,-99.99,,,0.00,23.0,cwc,2013-04-12 00:40:00,
2013-04-11 18:45:00,55.9,32.9,29.76,SW,232,2.0,-999.0,36,-99.99,,,0.00,21.0,cwc,2013-04-12 00:45:00,
2013-04-11 18:50:00,55.8,33.1,29.76,SW,232,0.0,-999.0,37,-99.99,,,0.00,23.0,cwc,2013-04-12 00:50:00,
2013-04-11 18:55:00,55.6,33.3,29.76,SW,232,3.0,-999.0,38,-99.99,,,0.00,23.0,cwc,2013-04-12 00:55:00,
2013-04-11 19:00:00,55.5,33.2,29.76,SW,227,4.0,-999.0,38,-99.99,,,0.00,25.0,cwc,2013-04-12 01:00:00,
2013-04-11 19:05:00,55.3,33.7,29.77,ESE,121,4.0,-999.0,40,-99.99,,,0.00,18.0,cwc,2013-04-12 01:05:00,
2013-04-11 19:10:00,55.1,33.9,29.77,SSE,165,2.0,-999.0,41,-99.99,,,0.00,18.0,cwc,2013-04-12 01:10:00,
2013-04-11 19:15:00,54.8,33.6,29.77,SSE,165,2.0,-999.0,41,-99.99,,,0.00,18.0,cwc,2013-04-12 01:15:00,
2013-04-11 19:20:00,54.6,33.7,29.77,SSW,208,5.0,-999.0,42,-99.99,,,0.00,11.0,cwc,2013-04-12 01:20:00,
2013-04-11 19:25:00,54.3,33.8,29.78,SSW,209,0.0,-999.0,43,-99.99,,,0.00,7.0,cwc,2013-04-12 01:25:00,
2013-04-11 19:30:00,54.1,33.9,29.78,NE,34,2.0,-999.0,44,-99.99,,,0.00,5.0,cwc,2013-04-12 01:30:00,
2013-04-11 19:35:00,53.8,33.6,29.77,North,355,4.0,-999.0,44,-99.99,,,0.00,0.0,cwc,2013-04-12 01:35:00,
2013-04-11 19:40:00,53.6,33.4,29.77,NNW,337,6.0,-999.0,44,-99.99,,,0.00,0.0,cwc,2013-04-12 01:40:00,
2013-04-11 19:45:00,53.4,33.6,29.78,NNW,340,0.0,-999.0,45,-99.99,,,0.00,0.0,cwc,2013-04-12 01:45:00,
2013-04-11 19:55:00,52.8,33.4,29.78,North,355,0.0,-999.0,46,-99.99,,,0.00,0.0,cwc,2013-04-12 01:55:00,
2013-04-11 20:00:00,52.4,33.0,29.78,NNE,13,4.0,-999.0,46,-99.99,,,0.00,0.0,cwc,2013-04-12 02:00:00,
2013-04-11 20:05:00,52.0,32.6,29.78,North,9,0.0,-999.0,46,-99.99,,,0.00,0.0,cwc,2013-04-12 02:05:00,
2013-04-11 20:10:00,51.7,32.3,29.79,North,9,2.0,-999.0,46,-99.99,,,0.00,0.0,cwc,2013-04-12 02:10:00,
2013-04-11 20:15:00,51.5,32.4,29.79,North,9,2.0,-999.0,47,-99.99,,,0.00,0.0,cwc,2013-04-12 02:15:00,
2013-04-11 20:20:00,51.2,32.1,29.80,North,9,3.0,-999.0,47,-99.99,,,0.00,0.0,cwc,2013-04-12 02:20:00,
2013-04-11 20:25:00,51.0,32.6,29.80,North,9,5.0,-999.0,49,-99.99,,,0.00,0.0,cwc,2013-04-12 02:25:00,
2013-04-11 20:30:00,50.8,32.8,29.80,North,9,3.0,-999.0,50,-99.99,,,0.00,0.0,cwc,2013-04-12 02:30:00,
2013-04-11 20:35:00,50.5,32.9,29.81,NNE,17,5.0,-999.0,51,-99.99,,,0.00,0.0,cwc,2013-04-12 02:35:00,
2013-04-11 20:40:00,50.2,33.3,29.81,NNE,17,2.0,-999.0,53,-99.99,,,0.00,0.0,cwc,2013-04-12 02:40:00,
2013-04-11 20:45:00,49.8,33.2,29.81,NNE,18,3.0,-999.0,54,-99.99,,,0.00,0.0,cwc,2013-04-12 02:45:00,
2013-04-11 20:50:00,49.5,32.9,29.81,NNE,18,1.0,-999.0,54,-99.99,,,0.00,0.0,cwc,2013-04-12 02:50:00,
2013-04-11 20:55:00,49.3,33.1,29.81,NNE,18,0.0,-999.0,55,-99.99,,,0.00,0.0,cwc,2013-04-12 02:55:00,
2013-04-11 21:00:00,49.1,32.9,29.81,NNE,18,0.0,-999.0,55,-99.99,,,0.00,0.0,cwc,2013-04-12 03:00:00,
2013-04-11 21:05:00,49.0,33.2,29.81,NNE,18,0.0,-999.0,56,-99.99,,,0.00,0.0,cwc,2013-04-12 03:05:00,
2013-04-11 21:10:00,48.8,33.0,29.82,NNE,18,0.0,-999.0,56,-99.99,,,0.00,0.0,cwc,2013-04-12 03:10:00,
2013-04-11 21:20:00,48.6,33.1,29.82,NNE,18,1.0,-999.0,57,-99.99,,,0.00,0.0,cwc,2013-04-12 03:20:00,
2013-04-11 21:25:00,48.5,33.4,29.83,NNE,18,2.0,-999.0,58,-99.99,,,0.00,0.0,cwc,2013-04-12 03:25:00,
2013-04-11 21:30:00,48.4,32.9,29.83,NNW,336,11.0,-999.0,57,-99.99,,,0.00,0.0,cwc,2013-04-12 03:30:00,
2013-04-11 21:35:00,48.2,32.7,29.83,NNE,19,0.0,-999.0,57,-99.99,,,0.00,0.0,cwc,2013-04-12 03:35:00,
2013-04-11 21:40:00,48.0,32.5,29.83,NNE,24,3.0,-999.0,57,-99.99,,,0.00,0.0,cwc,2013-04-12 03:40:00,
2013-04-11 21:45:00,47.7,32.2,29.83,NNE,24,3.0,-999.0,57,-99.99,,,0.00,0.0,cwc,2013-04-12 03:45:00,
2013-04-11 21:50:00,47.4,32.3,29.83,NNE,24,2.0,-999.0,58,-99.99,,,0.00,0.0,cwc,2013-04-12 03:50:00,
2013-04-11 21:55:00,47.2,32.1,29.84,NNE,24,6.0,-999.0,58,-99.99,,,0.00,0.0,cwc,2013-04-12 03:55:00,
2013-04-11 22:00:00,47.0,32.2,29.84,NNE,24,3.0,-999.0,59,-99.99,,,0.00,0.0,cwc,2013-04-12 04:00:00,
2013-04-11 22:05:00,46.9,32.5,29.84,NNE,24,5.0,-999.0,60,-99.99,,,0.00,0.0,cwc,2013-04-12 04:05:00,
2013-04-11 22:10:00,46.9,32.5,29.83,NNE,25,2.0,-999.0,60,-99.99,,,0.00,0.0,cwc,2013-04-12 04:10:00,
2013-04-11 22:15:00,46.7,32.3,29.83,NNE,25,1.0,-999.0,60,-99.99,,,0.00,0.0,cwc,2013-04-12 04:15:00,
2013-04-11 22:20:00,46.6,32.2,29.83,NNE,25,0.0,-999.0,60,-99.99,,,0.00,0.0,cwc,2013-04-12 04:20:00,
2013-04-11 22:25:00,46.5,32.1,29.83,NNE,25,0.0,-999.0,60,-99.99,,,0.00,0.0,cwc,2013-04-12 04:25:00,
2013-04-11 22:30:00,46.3,32.3,29.83,NNE,25,0.0,-999.0,61,-99.99,,,0.00,0.0,cwc,2013-04-12 04:30:00,
2013-04-11 22:35:00,46.1,32.1,29.83,NNE,25,0.0,-999.0,61,-99.99,,,0.00,0.0,cwc,2013-04-12 04:35:00,
2013-04-11 22:40:00,45.9,31.9,29.82,NNE,25,0.0,-999.0,61,-99.99,,,0.00,0.0,cwc,2013-04-12 04:40:00,
2013-04-11 22:45:00,45.6,31.6,29.82,NNE,25,2.0,-999.0,61,-99.99,,,0.00,0.0,cwc,2013-04-12 04:45:00,
2013-04-11 22:50:00,45.1,31.8,29.83,NNE,25,3.0,-999.0,63,-99.99,,,0.00,0.0,cwc,2013-04-12 04:50:00,
2013-04-11 22:55:00,44.9,31.6,29.82,NNE,25,3.0,-999.0,63,-99.99,,,0.00,0.0,cwc,2013-04-12 04:55:00,
2013-04-11 23:00:00,44.3,31.3,29.82,NNE,25,3.0,-999.0,64,-99.99,,,0.00,0.0,cwc,2013-04-12 05:00:00,
2013-04-11 23:05:00,44.0,31.4,29.82,NNE,25,2.0,-999.0,65,-99.99,,,0.00,0.0,cwc,2013-04-12 05:05:00,
2013-04-11 23:10:00,43.8,31.2,29.82,NNE,25,1.0,-999.0,65,-99.99,,,0.00,0.0,cwc,2013-04-12 05:10:00,
2013-04-11 23:15:00,43.5,30.9,29.82,NNE,25,0.0,-999.0,65,-99.99,,,0.00,0.0,cwc,2013-04-12 05:15:00,
2013-04-11 23:20:00,43.1,30.9,29.81,NNE,25,0.0,-999.0,66,-99.99,,,0.00,0.0,cwc,2013-04-12 05:20:00,
2013-04-11 23:25:00,42.7,30.8,29.81,NNE,25,0.0,-999.0,67,-99.99,,,0.00,0.0,cwc,2013-04-12 05:25:00,
2013-04-11 23:30:00,42.4,30.5,29.81,NNE,25,2.0,-999.0,67,-99.99,,,0.00,0.0,cwc,2013-04-12 05:30:00,
2013-04-11 23:35:00,42.3,30.4,29.81,NNE,25,1.0,-999.0,67,-99.99,,,0.00,0.0,cwc,2013-04-12 05:35:00,
2013-04-11 23:40:00,42.0,30.1,29.81,NNE,25,1.0,-999.0,67,-99.99,,,0.00,0.0,cwc,2013-04-12 05:40:00,
2013-04-11 23:45:00,41.6,30.1,29.82,NNE,25,2.0,-999.0,68,-99.99,,,0.00,0.0,cwc,2013-04-12 05:45:00,
2013-04-11 23:50:00,41.2,29.7,29.82,NNE,25,1.0,-999.0,68,-99.99,,,0.00,0.0,cwc,2013-04-12 05:50:00,
2013-04-11 23:55:00,40.8,30.0,29.82,NNE,25,3.0,-999.0,70,-99.99,,,0.00,0.0,cwc,2013-04-12 05:55:00,